Theta_e
308 310 310 313 314 313 312 309 315 320 322 320 318 316 314 315 316 316 316 315 314 313 312 312 313 316 320 320 322 320 319 319 319 320 320 321 321 320 322 320 321 319 318 317 315 314 313
309 308 310 310 312 313 313 312 309 316 320 322 320 318 315 315 316 316 316 315 314 314 312 312 313 316 322 320 323 320 319 319 319 320 319 321 321 322 321 321 321 318 316 315 314 314 314
310 308 308 311 310 312 313 313 311 310 317 320 322 319 316 314 315 316 316 316 315 314 313 312 313 315 318 319 323 322 320 318 319 319 319 321 322 321 321 320 318 318 318 316 315 314 313
311 309 309 308 311 310 313 313 312 310 311 318 321 321 318 314 315 316 316 316 316 315 314 312 313 315 316 321 322 320 320 319 319 320 320 322 322 318 321 319 321 319 319 318 316 316 315
310 307 306 307 307 310 311 313 313 312 309 314 319 322 318 315 314 316 316 316 316 314 313 314 315 318 318 321 318 318 318 319 319 321 321 322 321 318 320 322 321 321 323 323 319 316 317
310 309 306 306 307 307 310 311 313 312 312 309 317 322 319 316 314 316 316 315 315 317 315 317 317 316 317 320 318 318 319 319 318 318 320 321 317 318 316 321 326 325 325 322 320 318 317
309 306 305 305 305 306 308 310 312 313 312 309 314 321 320 316 314 315 315 314 316 317 319 314 314 316 317 317 318 318 319 319 319 317 320 318 320 320 319 318 319 323 323 322 319 317 318
306 306 306 307 306 305 306 309 310 312 312 310 311 321 321 316 314 315 311 311 315 318 320 319 319 320 319 318 318 317 318 319 320 319 319 316 319 317 315 315 318 318 320 318 317 318 319
307 307 308 310 310 307 306 308 311 312 312 311 310 320 321 316 315 314 313 314 319 317 317 318 321 319 317 316 317 316 316 316 320 320 319 318 317 316 314 315 318 314 319 317 318 316 315
307 308 311 312 312 310 306 308 311 312 312 311 310 320 321 315 314 310 314 317 319 323 313 316 321 318 316 315 316 315 316 317 319 318 316 317 317 315 314 314 312 313 313 315 317 314 318
307 311 312 312 312 309 308 309 312 313 312 311 310 321 320 315 313 310 313 318 319 318 314 316 317 316 314 315 315 315 315 316 319 318 318 318 316 316 315 315 314 313 313 312 315 314 312
307 312 312 312 312 311 310 312 312 313 312 310 311 321 320 315 315 313 316 319 318 313 314 318 315 314 315 316 313 312 315 315 315 314 313 314 312 314 314 313 313 312 311 311 309 307 309
308 312 312 312 312 312 312 313 313 313 312 310 314 321 319 314 311 313 317 314 310 314 314 318 314 315 315 315 314 312 314 315 316 317 316 312 312 312 312 313 312 310 310 312 313 312 313
308 313 313 313 313 313 313 313 313 313 312 310 316 321 318 315 314 314 318 317 309 311 314 316 314 315 316 316 313 312 313 313 312 314 312 314 315 312 313 313 312 312 311 312 314 314 314
307 312 313 313 313 313 313 313 313 313 311 313 318 319 317 316 315 314 315 315 312 312 313 314 315 316 316 316 314 313 312 313 311 312 316 314 315 310 311 310 311 310 310 309 312 311 310
307 312 313 313 313 313 313 313 312 311 312 315 317 316 314 315 314 319 321 316 315 315 315 315 315 315 316 315 314 314 312 312 311 311 311 314 313 311 311 308 308 310 310 311 310 311 314
307 311 313 313 313 312 311 311 311 312 312 315 312 314 313 314 315 317 320 319 318 317 317 315 315 315 316 314 314 315 314 312 311 310 311 311 311 310 309 308 307 309 308 309 311 311 310
307 308 311 312 311 311 312 311 313 313 313 316 312 317 316 315 313 313 316 317 314 315 317 316 315 315 316 315 315 315 313 312 311 312 314 313 311 309 310 310 309 310 310 311 312 312 311
306 308 308 311 311 310 311 310 311 312 313 312 314 314 314 315 312 311 312 314 314 314 316 316 316 315 316 315 317 313 311 312 313 313 310 309 312 311 312 311 312 308 307 309 310 308 309
306 307 308 309 310 309 311 310 309 312 314 312 312 313 310 309 306 311 312 313 314 314 314 314 314 314 318 318 314 313 312 312 309 308 308 313 313 314 315 313 313 311 310 307 309 308 308
304 306 307 309 310 310 311 309 309 311 314 310 309 313 311 316 314 311 311 314 313 314 315 314 313 315 317 317 315 313 312 312 308 308 312 312 314 315 313 314 313 311 310 308 308 308 308
304 305 306 309 309 310 310 308 308 310 312 309 312 313 304 306 311 311 311 313 315 316 313 314 314 314 319 317 315 313 311 311 311 309 311 311 313 313 314 313 312 313 312 311 308 309 307
304 304 306 307 310 311 310 309 308 309 311 309 307 307 304 305 309 311 313 312 314 316 316 316 317 318 318 318 313 310 310 310 310 310 311 312 313 311 312 314 313 313 312 312 310 307 307
305 304 305 306 307 309 310 309 308 308 310 311 309 309 311 307 308 312 313 312 312 314 316 316 316 316 315 311 311 312 312 311 312 312 312 313 313 311 313 311 310 312 312 309 308 308 307
304 305 304 305 306 306 308 309 308 308 309 310 310 310 313 314 308 309 311 312 313 314 315 315 315 314 311 313 314 313 313 314 313 311 313 312 311 312 311 313 312 310 308 307 307 307 306
301 304 304 304 305 306 306 308 309 307 309 309 310 311 309 313 310 307 309 310 311 311 312 314 312 311 313 312 312 315 315 314 315 312 310 311 311 312 307 311 313 311 308 306 306 307 306
301 302 304 304 304 305 306 306 308 307 308 308 309 311 310 310 306 305 309 310 310 310 312 312 313 313 313 313 316 315 315 315 315 314 312 312 311 312 309 310 312 310 308 307 311 310 305
301 301 303 304 304 305 305 306 308 307 308 308 309 310 310 307 306 304 304 306 308 309 311 310 312 312 313 315 316 315 315 316 314 313 312 312 312 313 312 313 313 311 308 309 308 305 306
300 301 301 303 304 304 305 305 307 307 308 308 309 310 311 307 305 306 305 305 305 306 308 308 313 310 312 315 314 313 315 311 313 314 311 313 312 312 312 312 309 306 307 307 305 306 306
Wind_Speed
11 11 13 13 13 12 11 12 12 11 13 12 11 12 13 14 16 16 18 19 17 17 18 19 20 17 3 2 5 5 8 11 10 11 16 4 7 5 6 7 15 10 5 7 10 11 7
12 11 11 12 13 14 13 12 13 12 12 13 13 13 13 15 16 18 19 21 19 17 17 17 16 14 3 1 2 5 9 12 13 9 9 9 3 10 10 5 4 8 15 11 10 10 6
13 11 11 12 12 14 15 14 13 14 13 13 14 13 14 15 17 19 20 21 21 18 16 15 11 9 2 9 4 10 9 10 9 6 3 4 7 5 7 12 15 20 18 8 5 4 7
13 12 11 11 12 14 15 15 14 13 14 13 14 14 14 15 17 20 22 22 23 19 15 12 9 2 6 4 10 9 6 9 4 5 2 2 6 8 7 18 4 7 5 5 6 7 7
13 13 12 13 13 13 15 16 15 14 14 15 14 15 14 15 17 20 23 24 23 16 10 8 2 2 7 7 4 2 4 3 7 5 1 2 6 6 5 10 5 2 5 4 5 9 4
13 13 13 14 14 14 15 16 16 15 14 14 13 14 14 14 17 20 23 24 16 2 1 3 1 2 4 3 3 2 2 3 2 3 4 6 5 5 3 4 6 7 3 3 7 9 6
14 15 15 15 16 16 16 16 16 15 14 13 13 13 14 13 16 18 22 8 7 5 4 3 3 3 3 7 3 2 2 2 2 7 3 3 6 7 12 7 4 8 5 6 2 6 5
14 15 15 16 17 17 17 17 16 16 14 12 12 11 12 13 13 15 13 3 1 4 7 4 7 6 13 9 2 2 3 3 3 3 1 6 2 4 5 3 4 6 6 4 2 3 3
13 15 16 17 18 18 18 17 16 16 14 12 11 10 10 12 12 10 7 5 14 11 2 7 6 4 5 5 4 4 3 2 2 3 3 6 5 5 5 3 6 2 7 5 5 5 3
14 15 17 18 18 18 19 18 16 15 14 12 11 9 9 9 8 7 3 14 8 5 4 6 4 6 4 4 4 5 3 3 2 4 6 4 1 5 4 4 4 3 2 4 6 4 3
15 15 15 15 15 17 18 18 16 15 14 12 11 9 8 6 7 3 11 14 4 2 1 4 4 1 4 8 2 2 2 3 5 4 4 5 4 4 3 4 4 4 4 5 4 3 2
14 14 12 12 13 14 16 17 15 14 14 12 11 9 8 6 6 8 17 7 2 5 6 3 3 5 5 3 2 1 2 4 3 5 5 2 2 3 6 3 3 5 5 6 4 3 2
12 11 9 9 12 13 15 16 14 13 12 11 10 10 9 6 1 10 14 4 5 4 4 4 5 4 4 5 3 4 5 4 5 5 1 4 3 2 4 5 3 6 6 3 3 2 6
10 7 7 8 11 13 14 14 12 12 11 10 8 11 11 14 5 11 7 3 4 6 7 2 4 4 6 4 5 5 6 4 1 5 4 6 2 5 1 3 5 3 6 5 5 3 4
10 7 7 9 12 13 13 13 12 11 10 9 8 9 6 12 9 3 5 1 8 6 5 3 4 5 3 3 4 3 6 7 6 7 7 5 2 0 2 2 5 4 3 4 3 1 2
10 9 9 10 12 12 12 12 12 11 12 10 7 6 6 10 7 4 4 6 5 4 3 1 7 5 9 6 6 6 7 4 6 4 3 7 4 2 2 3 3 3 4 3 2 2 4
11 11 11 11 12 12 12 12 13 13 12 13 5 3 3 13 11 3 5 7 4 6 3 2 5 6 6 8 8 5 6 1 2 3 3 5 4 2 3 3 7 2 1 4 3 4 4
13 13 14 13 12 12 10 6 15 15 15 16 5 2 3 19 3 2 3 5 4 5 3 5 2 5 8 9 6 5 8 3 4 4 6 2 5 3 2 1 3 3 5 5 4 4 1
16 15 15 17 15 13 10 6 9 16 21 11 3 2 1 3 5 2 4 2 2 6 5 7 4 7 2 8 4 4 4 0 2 3 8 6 1 4 4 4 2 3 4 4 5 3 5
17 17 16 20 18 16 12 9 8 16 21 15 2 2 3 3 2 6 2 3 2 5 9 9 9 6 0 2 6 6 4 1 2 3 4 5 3 5 7 4 4 4 4 4 5 3 3
18 18 18 19 21 18 16 12 10 12 21 8 1 3 3 4 4 3 6 2 7 3 4 2 6 4 2 3 2 4 2 3 4 2 3 4 4 3 4 3 2 2 3 5 5 4 5
19 19 19 19 21 21 18 14 12 12 17 8 3 3 2 2 4 6 1 6 6 3 6 10 7 12 3 6 8 9 8 5 6 2 3 2 2 2 2 5 4 2 5 5 4 4 5
20 20 20 20 21 21 19 16 14 14 13 4 3 2 3 2 4 6 8 8 9 5 6 4 4 2 5 5 1 3 2 6 7 8 4 4 5 3 3 2 3 5 6 4 2 2 3
23 22 21 22 22 22 21 18 16 16 19 4 4 2 2 3 3 6 8 9 10 5 3 5 4 2 3 6 3 7 12 13 11 8 4 5 4 3 3 2 1 4 4 3 4 1 2
25 25 24 24 24 24 22 21 19 17 18 13 1 1 2 3 2 3 7 6 5 4 5 3 3 2 4 6 4 6 5 6 6 8 7 5 5 3 4 3 4 2 2 4 5 4 1
27 27 27 26 26 26 23 22 22 19 16 18 6 5 3 2 2 4 3 7 5 5 3 3 4 1 1 4 4 1 4 4 4 3 5 8 7 4 2 4 5 4 2 3 4 4 4
29 30 30 30 28 27 25 23 23 21 17 19 7 10 4 2 1 4 3 4 6 3 3 2 5 5 2 2 3 1 0 3 5 8 5 3 4 4 2 1 7 5 3 2 2 5 6
28 31 32 32 31 29 27 25 24 21 18 20 7 10 7 3 2 3 2 3 5 3 6 5 4 3 2 3 3 2 1 4 3 4 6 6 6 3 3 2 7 7 4 6 5 3 6
33 34 34 35 34 31 29 28 26 21 19 20 3 12 15 3 3 8 17 21 19 12 1 2 4 4 5 4 1 4 4 2 4 3 2 2 5 5 7 5 3 1 3 1 6 7 5
Wind_Direction
269 265 257 253 254 254 259 261 263 278 285 290 296 303 310 315 317 320 322 324 327 333 336 340 344 348 6 10 252 316 327 341 348 13 36 47 43 108 86 103 80 79 77 54 102 100 86
273 266 265 257 254 252 255 260 260 264 280 285 291 298 306 310 313 316 317 318 321 324 330 335 340 348 3 271 238 298 334 342 347 10 32 40 72 113 108 27 70 106 94 102 105 105 120
273 271 262 259 257 253 252 255 259 260 267 283 287 294 301 307 311 312 312 313 315 316 322 325 330 342 8 239 290 285 323 334 353 3 38 71 153 79 116 87 96 112 103 59 103 106 114
265 267 267 265 260 255 250 252 256 260 261 271 286 289 298 305 309 312 310 310 310 311 313 309 310 296 245 276 293 299 295 322 338 13 339 25 99 101 91 118 81 98 77 121 240 170 200
267 273 272 267 261 259 251 248 253 258 261 265 281 289 294 303 309 312 312 312 308 303 301 290 232 156 267 313 282 282 298 321 323 7 12 34 82 90 94 114 86 214 174 164 183 209 184
268 269 270 268 265 256 254 246 247 252 260 260 272 287 290 302 310 316 321 317 311 284 61 92 137 21 286 263 264 282 280 316 25 351 34 51 61 107 66 108 181 192 202 194 185 195 160
268 271 271 270 265 258 253 248 241 246 253 260 263 282 286 300 312 325 336 349 13 344 34 228 242 249 272 309 276 266 11 1 64 45 84 15 98 176 189 190 153 182 173 172 228 171 138
280 277 275 270 262 256 247 249 239 240 244 257 253 273 282 297 312 319 328 35 77 329 312 274 254 265 271 269 296 296 5 81 79 123 86 30 167 208 131 183 146 143 157 150 81 102 139
285 281 276 271 261 249 244 242 237 233 237 248 245 263 274 293 311 310 322 16 345 297 241 292 221 199 231 172 230 248 100 119 125 123 156 155 211 137 118 100 112 61 165 167 150 136 77
294 288 281 272 258 244 236 236 230 226 229 239 235 252 264 289 300 323 301 335 359 356 56 278 225 249 171 143 275 205 155 141 73 150 138 145 182 131 120 103 109 115 166 135 127 119 219
296 293 282 267 251 235 226 226 223 220 221 229 227 238 248 257 310 310 327 333 2 65 39 253 221 234 148 155 158 260 131 61 167 165 112 227 136 111 115 155 150 187 130 135 144 156 148
293 293 281 258 237 227 214 212 214 215 217 221 219 227 228 262 271 313 329 323 117 48 244 298 189 163 127 156 168 105 125 58 108 79 40 138 66 106 164 93 93 119 86 54 60 95 302
288 289 272 237 219 210 200 202 204 209 215 219 215 218 214 215 252 347 337 354 66 163 294 212 185 158 159 172 187 166 166 162 152 108 180 16 342 341 112 91 52 72 64 355 344 345 228
277 279 249 214 198 194 194 196 199 202 211 211 210 214 218 226 238 338 12 38 158 200 231 297 141 108 181 156 227 176 137 154 171 102 124 152 250 176 181 153 172 150 142 157 232 221 266
258 248 217 199 189 189 192 198 200 203 205 197 204 203 230 235 238 314 69 219 209 191 211 205 56 121 229 236 172 150 191 191 198 173 145 143 237 56 92 114 123 181 170 176 120 7 28
240 222 202 191 187 188 195 199 203 202 196 179 168 163 245 219 178 139 92 232 251 242 28 212 182 171 179 198 173 170 185 192 190 186 143 199 110 211 131 87 48 134 161 74 15 253 268
226 213 201 189 185 186 193 203 198 195 187 170 145 170 213 169 161 77 201 222 279 280 226 252 226 182 198 178 173 184 200 354 201 138 90 130 100 253 110 191 182 122 193 69 123 144 198
215 209 204 197 188 178 173 175 192 183 169 173 156 180 178 162 140 193 202 194 326 310 298 260 260 227 184 176 151 166 185 192 352 168 145 155 120 143 202 323 183 177 181 144 135 224 147
212 207 211 198 201 194 193 188 171 182 177 154 149 225 93 212 187 257 294 266 277 332 345 340 314 50 319 175 146 140 153 305 14 120 160 181 95 102 4 351 359 200 191 131 107 86 194
214 209 211 196 201 200 205 203 189 186 185 182 171 122 342 35 356 178 180 236 250 302 253 261 283 292 308 332 26 154 142 20 64 100 78 86 110 156 185 194 153 173 184 151 129 131 198
213 211 213 201 198 201 204 202 198 191 191 175 192 212 184 185 255 195 168 232 199 257 257 239 301 240 265 223 69 123 120 137 33 103 85 107 124 108 77 30 67 166 181 171 194 191 188
216 213 212 205 202 198 203 201 192 191 191 193 143 196 8 189 117 132 202 224 186 168 205 271 274 301 244 206 208 186 155 190 181 162 104 25 148 106 75 30 50 252 255 249 220 205 252
218 216 213 208 205 204 205 203 197 190 175 168 208 332 111 289 126 144 214 215 225 187 260 171 298 263 273 246 230 114 49 104 148 136 131 108 126 102 195 354 12 310 220 198 184 108 175
219 217 216 213 212 212 208 208 209 205 199 182 136 147 86 280 165 198 208 205 228 273 267 317 70 283 297 147 120 59 61 66 63 37 94 117 94 75 144 49 48 250 311 270 142 127 316
219 217 216 215 214 214 213 210 214 216 209 218 150 65 91 313 280 284 201 204 141 203 246 157 255 218 288 21 33 59 360 35 32 31 34 83 111 83 129 184 294 282 203 153 164 242 305
219 218 216 217 216 214 213 210 213 215 210 211 241 175 94 102 267 310 227 178 174 186 293 238 256 81 55 80 46 138 184 156 167 77 27 67 71 103 89 133 210 234 214 118 102 281 160
220 218 216 216 216 215 213 213 212 215 208 202 210 205 128 114 332 6 278 242 154 157 181 278 168 163 85 101 99 237 291 173 157 149 156 71 39 127 115 188 286 242 168 80 134 234 149
221 219 216 215 215 215 212 210 207 208 202 197 212 196 183 147 260 202 273 313 334 167 170 206 87 316 71 97 130 184 176 217 95 148 168 151 138 175 102 108 279 170 100 180 194 83 139
225 220 217 216 213 213 210 209 206 203 197 198 181 199 195 144 227 283 279 272 265 291 243 212 177 160 182 106 117 114 215 134 170 192 117 162 174 178 179 213 278 182 322 102 134 136 159